• In Germany
  • List of Countries
  • For 7 days
  • Water Temperature
  • Satellite Maps
  • Weather Map
  • Weather Widgets
  • user-avatar
    Login

    Hourly Weather Shkoder

    Today, 23 September, Saturday

    Time Temperature Precipitation Wind Pressure Humidity
    00:00 +12°C° 0 mm 2 mps 744 mmHg 72%
    01:00 +12°C° 0 mm 2 mps 744 mmHg 72%
    02:00 +12°C° 0 mm 2 mps 744 mmHg 72%
    03:00 +12°C° 0 mm 2 mps 744 mmHg 71%
    04:00 +12°C° 0 mm 2 mps 743 mmHg 71%
    05:00 +13°C° 0 mm 2 mps 743 mmHg 67%
    06:00 +14°C° 0 mm 2 mps 743 mmHg 64%
    07:00 +16°C° 0 mm 2 mps 744 mmHg 58%
    08:00 +18°C° 0 mm 2 mps 744 mmHg 54%
    09:00 +19°C° 0 mm 2 mps 744 mmHg 50%
    10:00 +22°C° 0 mm 1 mps 744 mmHg 45%
    11:00 +23°C° 0 mm 2 mps 743 mmHg 46%
    12:00 +23°C° 0 mm 2 mps 743 mmHg 46%
    13:00 +23°C° 0 mm 2 mps 743 mmHg 45%
    14:00 +23°C° 0 mm 2 mps 743 mmHg 48%
    15:00 +21°C° 0 mm 2 mps 743 mmHg 51%
    16:00 +21°C° 0 mm 2 mps 743 mmHg 53%
    17:00 +20°C° 0 mm 1 mps 743 mmHg 62%
    18:00 +18°C° 0 mm 1 mps 743 mmHg 71%
    19:00 +15°C° 0 mm 1 mps 743 mmHg 79%
    20:00 +15°C° 0 mm 1 mps 743 mmHg 79%
    21:00 +15°C° 0 mm 1 mps 743 mmHg 80%
    22:00 +15°C° 0 mm 1 mps 743 mmHg 80%
    23:00 +14°C° 0 mm 1 mps 743 mmHg 78%

    Tomorrow, 24 September, Sunday

    Time Temperature Precipitation Wind Pressure Humidity
    00:00 +14°C° 0 mm 1 mps 743 mmHg 77%
    01:00 +14°C° 0 mm 1 mps 743 mmHg 76%
    02:00 +14°C° 0 mm 1 mps 743 mmHg 75%
    03:00 +14°C° 0 mm 1 mps 743 mmHg 73%
    04:00 +14°C° 0 mm 2 mps 742 mmHg 72%
    05:00 +15°C° 0 mm 2 mps 742 mmHg 69%
    06:00 +16°C° 0 mm 2 mps 742 mmHg 65%
    07:00 +18°C° 0 mm 1 mps 742 mmHg 62%
    08:00 +19°C° 0 mm 1 mps 742 mmHg 55%
    09:00 +21°C° 0 mm 1 mps 742 mmHg 48%
    10:00 +23°C° 0 mm 1 mps 742 mmHg 41%
    11:00 +24°C° 0 mm 1 mps 742 mmHg 40%
    12:00 +24°C° 0 mm 2 mps 742 mmHg 39%
    13:00 +25°C° 0 mm 2 mps 741 mmHg 39%
    14:00 +24°C° 0 mm 2 mps 741 mmHg 40%
    15:00 +24°C° 0 mm 2 mps 741 mmHg 42%
    16:00 +23°C° 0 mm 1 mps 741 mmHg 44%
    17:00 +21°C° 0 mm 1 mps 741 mmHg 50%
    18:00 +19°C° 0 mm 1 mps 741 mmHg 55%
    19:00 +18°C° 0 mm 1 mps 741 mmHg 61%
    20:00 +16°C° 0 mm 1 mps 741 mmHg 61%
    21:00 +16°C° 0 mm 1 mps 741 mmHg 61%
    22:00 +16°C° 0 mm 1 mps 742 mmHg 61%
    23:00 +15°C° 0 mm 2 mps 742 mmHg 61%

    Day after tomorrow, 25 September, Monday

    Time Temperature Precipitation Wind Pressure Humidity
    00:00 +15°C° 0 mm 2 mps 741 mmHg 61%
    01:00 +15°C° 0 mm 2 mps 741 mmHg 61%
    02:00 +15°C° 0 mm 2 mps 741 mmHg 61%
    03:00 +15°C° 0 mm 2 mps 741 mmHg 62%
    04:00 +15°C° 0 mm 2 mps 741 mmHg 62%
    05:00 +15°C° 0 mm 2 mps 741 mmHg 62%
    06:00 +16°C° 0 mm 2 mps 741 mmHg 61%
    07:00 +17°C° 0 mm 2 mps 741 mmHg 61%
    08:00 +19°C° 0 mm 2 mps 741 mmHg 56%
    09:00 +22°C° 0 mm 1 mps 741 mmHg 51%
    10:00 +24°C° 0 mm 1 mps 741 mmHg 46%
    11:00 +24°C° 0.1 mm 1 mps 741 mmHg 46%
    12:00 +24°C° 0.1 mm 2 mps 741 mmHg 46%
    13:00 +25°C° 0.1 mm 2 mps 740 mmHg 45%
    14:00 +24°C° 0.4 mm 2 mps 740 mmHg 50%
    15:00 +23°C° 0.4 mm 2 mps 740 mmHg 54%
    16:00 +21°C° 0.4 mm 2 mps 740 mmHg 59%
    17:00 +20°C° 0.3 mm 2 mps 741 mmHg 63%
    18:00 +19°C° 0.3 mm 2 mps 741 mmHg 68%
    19:00 +19°C° 0.3 mm 1 mps 741 mmHg 73%
    20:00 +18°C° 0.2 mm 1 mps 741 mmHg 74%
    21:00 +18°C° 0.2 mm 1 mps 741 mmHg 76%
    22:00 +18°C° 0.2 mm 1 mps 742 mmHg 78%
    23:00 +16°C° 0.2 mm 1 mps 741 mmHg 78%

    26 September, Tuesday

    Time Temperature Precipitation Wind Pressure Humidity
    00:00 +16°C° 0.2 mm 2 mps 741 mmHg 79%
    01:00 +16°C° 0.2 mm 2 mps 741 mmHg 79%
    02:00 +16°C° 0.4 mm 2 mps 741 mmHg 80%
    03:00 +16°C° 0.4 mm 2 mps 741 mmHg 80%
    04:00 +15°C° 0.4 mm 2 mps 741 mmHg 81%
    05:00 +16°C° 0.4 mm 2 mps 741 mmHg 79%
    06:00 +16°C° 0.4 mm 2 mps 741 mmHg 78%
    07:00 +17°C° 0.4 mm 2 mps 741 mmHg 76%
    08:00 +18°C° 0.3 mm 2 mps 742 mmHg 70%
    09:00 +19°C° 0.3 mm 2 mps 742 mmHg 64%
    10:00 +21°C° 0.3 mm 2 mps 742 mmHg 58%
    11:00 +21°C° 0.2 mm 2 mps 741 mmHg 57%
    12:00 +23°C° 0.2 mm 2 mps 741 mmHg 55%
    13:00 +24°C° 0.2 mm 2 mps 741 mmHg 53%
    14:00 +23°C° 0.2 mm 2 mps 741 mmHg 54%
    15:00 +23°C° 0.2 mm 2 mps 741 mmHg 55%
    16:00 +23°C° 0.2 mm 2 mps 741 mmHg 56%
    17:00 +21°C° 0.1 mm 2 mps 741 mmHg 61%
    18:00 +19°C° 0.1 mm 2 mps 742 mmHg 66%
    19:00 +17°C° 0.1 mm 2 mps 742 mmHg 72%
    20:00 +17°C° 0 mm 2 mps 742 mmHg 73%
    21:00 +16°C° 0 mm 2 mps 742 mmHg 73%
    22:00 +16°C° 0 mm 2 mps 743 mmHg 74%
    23:00 +16°C° 0 mm 2 mps 743 mmHg 75%

    27 September, Wednesday

    Time Temperature Precipitation Wind Pressure Humidity
    00:00 +15°C° 0 mm 2 mps 743 mmHg 76%
    01:00 +15°C° 0 mm 2 mps 743 mmHg 76%
    02:00 +15°C° 0 mm 2 mps 743 mmHg 77%
    03:00 +15°C° 0 mm 2 mps 742 mmHg 79%
    04:00 +14°C° 0 mm 2 mps 742 mmHg 80%
    05:00 +15°C° 0 mm 2 mps 743 mmHg 78%
    06:00 +16°C° 0 mm 2 mps 743 mmHg 77%
    07:00 +17°C° 0 mm 2 mps 743 mmHg 75%
    08:00 +19°C° 0 mm 2 mps 743 mmHg 67%
    09:00 +21°C° 0 mm 2 mps 743 mmHg 60%
    10:00 +24°C° 0 mm 1 mps 743 mmHg 52%
    11:00 +24°C° 0.2 mm 2 mps 743 mmHg 50%
    12:00 +25°C° 0.2 mm 2 mps 743 mmHg 48%
    13:00 +25°C° 0.2 mm 2 mps 743 mmHg 46%
    14:00 +25°C° 0.2 mm 2 mps 743 mmHg 49%
    15:00 +24°C° 0.2 mm 2 mps 743 mmHg 51%
    16:00 +24°C° 0.2 mm 2 mps 743 mmHg 53%
    17:00 +21°C° 0.2 mm 2 mps 743 mmHg 60%
    18:00 +19°C° 0.2 mm 2 mps 743 mmHg 66%
    19:00 +18°C° 0.2 mm 2 mps 744 mmHg 73%
    20:00 +17°C° 0 mm 2 mps 744 mmHg 75%
    21:00 +17°C° 0 mm 2 mps 744 mmHg 77%
    22:00 +16°C° 0 mm 2 mps 744 mmHg 79%
    23:00 +16°C° 0 mm 2 mps 744 mmHg 80%

    28 September, Thursday

    Time Temperature Precipitation Wind Pressure Humidity
    00:00 +16°C° 0 mm 2 mps 744 mmHg 80%
    01:00 +15°C° 0 mm 2 mps 744 mmHg 81%
    02:00 +15°C° 0 mm 2 mps 744 mmHg 81%
    03:00 +14°C° 0 mm 3 mps 744 mmHg 80%
    04:00 +13°C° 0 mm 3 mps 744 mmHg 80%
    05:00 +14°C° 0 mm 3 mps 744 mmHg 77%
    06:00 +16°C° 0 mm 3 mps 744 mmHg 74%
    07:00 +16°C° 0 mm 3 mps 744 mmHg 72%
    08:00 +18°C° 0 mm 3 mps 744 mmHg 65%
    09:00 +20°C° 0 mm 3 mps 744 mmHg 58%
    10:00 +22°C° 0 mm 3 mps 744 mmHg 51%
    11:00 +24°C° 0.1 mm 3 mps 744 mmHg 49%
    12:00 +25°C° 0.1 mm 2 mps 744 mmHg 48%
    13:00 +25°C° 0.1 mm 2 mps 744 mmHg 46%
    14:00 +25°C° 0.2 mm 3 mps 744 mmHg 48%
    15:00 +24°C° 0.2 mm 3 mps 744 mmHg 50%
    16:00 +24°C° 0.2 mm 3 mps 744 mmHg 53%
    17:00 +21°C° 0.1 mm 3 mps 744 mmHg 58%
    18:00 +19°C° 0.1 mm 3 mps 744 mmHg 64%
    19:00 +17°C° 0.1 mm 3 mps 745 mmHg 69%
    20:00 +17°C° 0.1 mm 3 mps 745 mmHg 70%
    21:00 +16°C° 0.1 mm 3 mps 745 mmHg 71%
    22:00 +16°C° 0.1 mm 3 mps 745 mmHg 72%
    23:00 +14°C° 0 mm 4 mps 745 mmHg 71%
    Show more